Simultaneous Nadir Overpasses (SNOs) Predictions

Prediction of SNOs between METOP-B and NOAA-19 Satellite Orbit:

Table of predicted SNOs for the next 14.0 days since TLE Epoch: 6/11/2022
Index Date (METOP-B) Time (METOP-B) Lat,Lon (METOP-B) SZA (METOP-B ) Date (NOAA-19) Time (NOAA-19) Lat,Lon (NOAA-19) SZA (NOAA-19 ) Distance(km) Time Diff (sec)
1 06/14/2022 18:46:10 -80.84, 111.70 120.89 06/14/2022 18:44:57 -80.85, 111.57 120.92 2.42 73
2 06/14/2022 19:36:50 80.85, -80.82 59.13 06/14/2022 19:36:01 80.84, -80.76 59.11 1.47 49
3 06/14/2022 20:27:31 -80.86, 86.58 120.86 06/14/2022 20:26:56 -80.84, 86.41 120.90 3.26 35
4 06/14/2022 21:18:12 80.84,-106.31 59.11 06/14/2022 21:18:01 80.84,-106.30 59.11 0.17 11
5 06/14/2022 22:08:53 -80.85, 61.10 120.89 06/14/2022 22:08:55 -80.84, 61.24 120.88 2.72 2
6 06/14/2022 22:59:34 80.84,-131.79 59.09 06/14/2022 23:00:01 80.84,-131.83 59.10 1.17 27
7 06/14/2022 23:50:15 -80.84, 35.62 120.91 06/14/2022 23:50:55 -80.84, 35.70 120.88 1.54 40



Historial Predications of SNOs between METOP-B and NOAA-19
